Flag for Hong Kong Weather past 2 weeks in Hong Kong, Hong Kong

Now
66 °F

Scattered clouds.


Feels Like: 66 °F
Forecast: 62 / 70 °F
Wind: 16 mph from Northwest

Location: National Airport

Current Time: Mar 1, 2015 at 3:02:44 PM

Latest Report: Mar 1, 2015 at 2:30 PM


Visibility: N/A

Pressure: 30.09 "Hg

Humidity: 60%

Dew point: 52 °F

Location of Hong KongLocation

Historic Weather in Hong Kong — Graph

°F

Hong Kong temperature yesterday

Maximum temperature yesterday: 72 °F (at 1:30 PM)
Minimum temperature yesterday: 66 °F (at 1:00 AM)
Average temperature yesterday: 69 °F

Past Weeks' High & Low Weather Summary

 TemperatureHumidityPressure
High82 °F (Feb 26, 1:30 PM)94% (Feb 17, 5:00 AM)30.18 "Hg (Feb 17, 5:00 AM)
Low63 °F (Feb 19, 11:30 PM)47% (Feb 14, 2:00 PM)29.86 "Hg (Feb 24, 3:00 PM)
Average69 °F79%30.00 "Hg
* Reported Feb 14 2:00 PM — Mar 1 2:00 PM, Hong Kong, Weather by CustomWeather, © 2015

Note: Actual official high and low records may vary slightly from our data, if they occured in-between our weather recording intervals... More about our weather records

Advertising

Hong Kong weather history for previous 24 hours

 ConditionsComfort  
Time TempWeatherWind HumidityBarometerVisibility
2:00 PM
Sun, Mar 1
66 °FScattered clouds.16 mph64%30.09 "HgN/A
1:30 PM66 °FScattered clouds.12 mph60%30.12 "HgN/A
1:00 PM64 °FScattered clouds.14 mph64%30.12 "HgN/A
12:30 PM64 °FScattered clouds.12 mph64%30.15 "HgN/A
12:00 PM64 °FScattered clouds.12 mph60%30.18 "HgN/A
11:30 AM64 °FScattered clouds.12 mph60%30.18 "HgN/A
11:00 AM64 °FScattered clouds.15 mph64%30.18 "HgN/A
10:30 AM66 °FScattered clouds.13 mph60%30.18 "HgN/A
10:00 AM66 °FScattered clouds.13 mph60%30.18 "HgN/A
9:30 AM66 °FScattered clouds.13 mph60%30.18 "HgN/A
9:00 AM64 °FScattered clouds.14 mph68%30.15 "HgN/A
8:30 AM64 °FScattered clouds.13 mph68%30.15 "HgN/A
8:00 AM64 °FScattered clouds.14 mph73%30.15 "HgN/A
7:30 AM64 °FPassing clouds.12 mph68%30.12 "HgN/A
7:00 AM64 °FScattered clouds.12 mph73%30.12 "HgN/A
6:30 AM64 °FPassing clouds.12 mph83%30.12 "HgN/A
6:00 AM64 °FPassing clouds.10 mph83%30.09 "HgN/A
5:30 AM66 °FLight rain. Passing clouds.20 mph88%30.09 "Hg4 mi
5:00 AM66 °FLight rain. Fog.21 mph88%30.07 "Hg3 mi
4:30 AM66 °FLight rain. Passing clouds.20 mph94%30.07 "Hg3 mi
4:00 AM66 °FPassing clouds.20 mph88%30.07 "Hg5 mi
3:30 AM68 °FPassing clouds.18 mph88%30.07 "Hg3 mi
3:00 AM73 °FPassing clouds.2 mph74%30.04 "Hg5 mi
2:30 AM73 °FPassing clouds.2 mph78%30.07 "HgN/A
2:00 AM70 °FPassing clouds.2 mph88%30.07 "HgN/A
1:30 AM70 °FPassing clouds.5 mph83%30.07 "HgN/A
1:00 AM70 °FPassing clouds.7 mph83%30.07 "HgN/A
12:30 AM70 °FPassing clouds.2 mph83%30.07 "HgN/A
12:00 AM72 °FPassing clouds.3 mph83%30.07 "Hg6 mi
11:30 PM
Sat, Feb 28
70 °FPassing clouds.5 mph88%30.07 "Hg5 mi
11:00 PM70 °FPassing clouds.10 mph83%30.04 "Hg4 mi
10:30 PM72 °FPassing clouds.7 mph78%30.04 "HgN/A
10:00 PM72 °FPassing clouds.6 mph78%30.04 "HgN/A
9:30 PM70 °FPassing clouds.8 mph83%30.01 "HgN/A
9:00 PM70 °FPassing clouds.8 mph83%30.01 "HgN/A
8:30 PM70 °FPassing clouds.13 mph83%30.01 "HgN/A
8:00 PM70 °FPassing clouds.12 mph83%30.01 "HgN/A
7:30 PM70 °FPassing clouds.10 mph78%30.01 "HgN/A
7:00 PM68 °FPassing clouds.12 mph83%29.98 "HgN/A
6:30 PM70 °FPassing clouds.13 mph78%29.98 "HgN/A
6:00 PM70 °FPassing clouds.15 mph78%29.98 "HgN/A
5:30 PM70 °FPassing clouds.15 mph78%29.95 "HgN/A
5:00 PM70 °FPassing clouds.18 mph78%29.95 "HgN/A
4:30 PM70 °FScattered clouds.18 mph78%29.95 "HgN/A
4:00 PM70 °FScattered clouds.16 mph78%29.95 "HgN/A
3:30 PM70 °FScattered clouds.15 mph78%29.95 "HgN/A
3:00 PM70 °FScattered clouds.18 mph78%29.98 "HgN/A
Weather by CustomWeather, © 2015

See weather overviewHow to use our weather pages